Regional Weather Roundup
Issued by NWS

Home | Current Version | Previous Version | Graphics & Text | Print | Product List | Glossary On
Versions: 1 2 3 4 5 6 7 8 9 10 11 12 13 14 15 16 17 18 19 20 21 22 23 24 25 26 27 28 29 30 31 32 33 34 35 36 37 38 39 40 41 42 43 44 45 46 47 48 49 50
542
ASUS44 KLIX 210701
RWRLA
LOUISIANA WEATHER ROUNDUP
NATIONAL WEATHER SERVICE NEW ORLEANS LA
200 AM CDT SUN SEP 21 2014

NOTE: "FAIR" INDICATES FEW OR NO CLOUDS BELOW 12,000 FEET WITH NO
      SIGNIFICANT WEATHER AND/OR OBSTRUCTIONS TO VISIBILITY.
      SKY/WX - SKY CONDITION AND SIGNIFICANT WEATHER.
      TMP - AIR TEMPERATURE.    DP   - DEWPOINT TEMPERATURE.
      RH  - RELATIVE HUMIDITY.  PRES - PRESSURE.
      HX  - HEAT INDEX.         WCI  - WIND CHILL INDEX.

*  THESE STATIONS ARE NOT NWS OR FAA STATIONS AND ARE NOT UNDER
   NWS QUALITY CONTROL.

LAZ040-048-061>063-065-066-069-210800-
SOUTHEAST LOUISIANA

CITY           SKY/WX    TMP DP  RH WIND       PRES   REMARKS
N.O. AUDUBON     N/A     75  72  88 MISG        N/A
N.O. INTL ARPT PTCLDY    78  68  71 NE6       29.97S
N.O. LAKEFRONT CLEAR     80  70  71 NE13      29.97F
N.O. DOWNTOWN* FAIR      79  66  65 NE3       29.97S
SLIDELL        CLEAR     69  67  93 N5        29.98S
BATON ROUGE    CLEAR     71  69  93 CALM      29.98F
BOOTHVILLE     CLEAR     79  72  79 E7        29.94F
BELLE CHASSE   CLEAR     73  68  84 NE5       29.96S
BOGALUSA*        N/A     68  65  89 N3        30.01S
GALLIANO*      NOT AVBL
NEW ROADS*     FAIR      71  70  98 CALM      29.99S FOG
GONZALES*      FAIR      70  70 100 CALM      29.97F FOG
HAMMOND*       NOT AVBL
HOUMA*         CLEAR     73  67  82 CALM      29.96S
PORT FOURCHON* MOSUNNY   81  70  69 E12       29.97S

$$

LAZ041-044-053-054-210800-
SOUTHWEST LOUISIANA

CITY           SKY/WX    TMP DP  RH WIND       PRES   REMARKS
LAKE CHARLES   CLEAR     71  69  93 CALM      29.97S
LAFAYETTE      CLEAR     73  71  93 CALM      29.98S
PATTERSON      CLEAR     72  70  94 NE5         N/A
SALT POINT       N/A     75  72  90 CALM      29.96S
NEW IBERIA     CLEAR     74  70  87 CALM      29.98S
CHENAULT AIRPK CLEAR     72  69  91 CALM      29.98S

$$

LAZ027-028-210800-
CENTRAL LOUISIANA

CITY           SKY/WX    TMP DP  RH WIND       PRES   REMARKS
FORT POLK      CLEAR     70  68  93 CALM      30.00R
ALEXANDRIA INT FOG       69  68  96 CALM      29.98S VSB 1
ALEXANDRIA     CLEAR     69  67  93 CALM      30.00S FOG

$$

LAZ001-002-210800-
NORTHWEST LOUISIANA

CITY           SKY/WX    TMP DP  RH WIND       PRES   REMARKS
SHREVEPORT     CLEAR     71  66  84 CALM      30.00S
BARKSDALE AFB  NOT AVBL
DTN SHREVEPORT CLEAR     71  70  96 CALM      30.01R

$$

LAZ014-016-210800-
NORTHEAST LOUISIANA

CITY           SKY/WX    TMP DP  RH WIND       PRES   REMARKS
MONROE         CLEAR     72  69  90 CALM      30.01S
TALLULAH       CLEAR     68  66  93 CALM      30.00F

$$




USA.gov is the U.S. government's official web portal to all federal, state and local government web resources and services.